Regional Weather Roundup
Issued by NWS Sioux Falls, SD

Home | Current Version | Previous Version | Text Only | Print | Product List | Glossary On
Versions: 1 2 3 4 5 6 7 8 9 10 11 12 13 14 15 16 17 18 19 20 21 22 23 24 25 26 27 28 29 30 31 32 33 34 35 36 37 38 39 40 41 42 43 44 45 46 47 48 49 50
036
ASUS43 KFSD 020502
RWRFSD

WEATHER ROUNDUP FOR SE SOUTH DAKOTA/SW MINNESOTA/NW IOWA
NATIONAL WEATHER SERVICE SIOUX FALLS SD
1200 AM CDT MON MAY 02 2016

NOTE: "FAIR" INDICATES FEW OR NO CLOUDS BELOW 12,000 FEET WITH NO
SIGNIFICANT WEATHER AND OR OBSTRUCTIONS TO VISIBILITY.


SDZ038>040-050-052>070-020600-
SOUTHEAST SOUTH DAKOTA

CITY           SKY/WX    TMP DP  RH WIND       PRES   REMARKS
BROOKINGS      CLEAR     44  33  65 SE5       30.15S
CHAMBERLAIN    NOT AVBL
HURON          CLEAR     45  37  73 CALM      30.17S
MADISON        FAIR      41  36  81 W5        30.16F
MITCHELL       CLEAR     46  39  76 W5        30.19R
SIOUX FALLS    CLEAR     40  36  86 CALM      30.17S
WINNER         FAIR      40  33  76 SW7       30.22S
YANKTON        CLEAR     43  36  75 W3        30.18S
$$

MNZ071-072-080-081-089-090-097-098-020600-
SOUTHWEST MINNESOTA

CITY           SKY/WX    TMP DP  RH WIND       PRES   REMARKS
FAIRMONT       MOCLDY    46  36  66 NW5       30.13R
JACKSON        PTCLDY    41  36  81 W3        30.15R
LUVERNE        CLEAR     39  34  81 CALM      30.16S
MARSHALL       CLEAR     42  34  73 SW7       30.15S
MONTEVIDEO     CLEAR     46  30  53 CALM      30.16R
REDWOOD FALLS  CLEAR     49  32  52 CALM      30.14R
TRACY          CLEAR     44  36  72 CALM      30.15S
WINDOM         CLEAR     43  39  87 CALM      30.15R
WORTHINGTON    CLEAR     40  37  89 W6        30.16S
$$

IAZ001>003-012>014-020>022-031-032-NEZ013-014-SDZ071-020600-
NORTHWEST IOWA

CITY           SKY/WX    TMP DP  RH WIND       PRES   REMARKS
DENISON        CLOUDY    46 N/A N/A CALM      30.12F
ESTHERVILLE    MOCLDY    43  39  86 NW7       30.14R
SIOUX CITY     CLEAR     43  38  82 NW6       30.17S
SPENCER        PTCLDY    40  36  86 W5        30.15R
STORM LAKE     CLOUDY    48  43  81 NW8       30.15S
$$

ABBREVIATIONS USED IN REMARKS
   TC - TEMPERATURE IN CELSIUS
  WCI - WIND CHILL INDEX
   HX - HEAT INDEX
  VSB - VISIBILITY





USA.gov is the U.S. government's official web portal to all federal, state and local government web resources and services.